Погода в Скукузе

ЮАР     24°59′59″S   31°35′34″E
темп.,
°C
ветер,
м/с
пор.,
м/с
влажн.,
%
обл.,
%
осадки,
мм/ч
давл.,
гПа
погр.,
м
10 августа, ср
ср1023:00+16юз11860 0.0 102316
02:00+15зюз11910 0.0 102211
05:00+14зсз11920 0.0 102112
08:00+17сз23720 0.0 1022235
11:00+24с34430 0.0 10201119
14:00+28с33270 0.0 10161630
17:00+26ссв35290 0.0 1016230
20:00+21ссв23460 0.0 101843
11 августа, чт
чт1123:00+19зсз11510 0.0 102011
02:00+17ююз11550 0.0 102011
05:00+16зюз11600 0.0 102011
08:00+19з12481 0.0 1022178
11:00+26с34342 0.0 10201134
14:00+30с44250 0.0 10161861
17:00+28ссв36270 0.0 1016328
20:00+22ссв26400 0.0 1017113
12 августа, пт
пт1223:00+20зсз22460 0.0 101815
02:00+18з22500 0.0 101719
05:00+17зсз22550 0.0 101715
08:00+20ссз38460 0.0 1018311
11:00+29с56270 0.0 10161260
14:00+32с56200 0.0 10121744
17:00+30ссв48220 0.0 1011538
20:00+24с310310 0.0 1013243
13 августа, сб
сб1323:00+21сз27380 0.0 1013140
02:00+20сз25390 0.0 1012106
05:00+18сз24440 0.0 101294
08:00+21ссз24395 0.0 1013231
11:00+30с44220 0.0 1010989
14:00+33с67160 0.0 10051683
17:00+32с610152 0.0 1004926
20:00+25с38250 0.0 1006197
14 августа, вс
вс1423:00+24ссз413300 0.0 1006402
02:00+22с311300 0.0 1005360
05:00+21ссз414330 0.0 1006494
08:00+22зюз24270 0.0 1008238
11:00+30юв44130 0.0 10081198
14:00+31в54130 0.0 10062301
17:00+22вюв811634 0.0 1010712
20:00+18юв6106867 0.0 1016940